ASA141 KPHX-PANC

Flight info

Callsign ASA141
Flight time N/A
Altitude 32000
Route QUAKY1 GCN WINEN NEERO IMB/N0454F340 ARRIE FOCHE PRYCE BKA/N0452F360 LAIRE JOH WITTI5
Aircraft B739/M-SDE2E3FGHIRWXY/LB1

Departure

Time 2026-05-05 20:27
Airport Phoenix Sky Harbor International Airport (KPHX)

Arrival

Time N/A
Airport Ted Stevens Anchorage International Airport (PANC)
Time Latitude Longitude Altitude Speed Heading
2026-05-05 20:05 33.43734 -112.00935 1131 ft 0 kts 107°
2026-05-05 20:17 33.43737 -112.00946 1130 ft 2 kts 107°
2026-05-05 20:17 33.43741 -112.00963 1130 ft 2 kts 107°
2026-05-05 20:18 33.43745 -112.00980 1130 ft 2 kts 107°
2026-05-05 20:18 33.43749 -112.00990 1130 ft 1 kts 98°
2026-05-05 20:18 33.43744 -112.01006 1130 ft 2 kts 36°
2026-05-05 20:18 33.43735 -112.01010 1130 ft 0 kts
2026-05-05 20:19 33.43730 -112.01009 1130 ft 0 kts 355°
2026-05-05 20:19 33.43727 -112.01009 1130 ft 0 kts 358°
2026-05-05 20:21 33.43741 -112.01010 1130 ft 4 kts 359°
2026-05-05 20:21 33.43785 -112.01010 1130 ft 8 kts 359°
2026-05-05 20:21 33.43874 -112.01000 1130 ft 16 kts 26°
2026-05-05 20:22 33.43902 -112.00846 1131 ft 22 kts 90°
2026-05-05 20:22 33.43901 -112.00667 1133 ft 20 kts 88°
2026-05-05 20:22 33.43903 -112.00507 1133 ft 17 kts 89°
2026-05-05 20:22 33.43903 -112.00366 1133 ft 17 kts 90°
2026-05-05 20:23 33.43903 -112.00222 1134 ft 16 kts 90°
2026-05-05 20:23 33.43903 -112.00098 1135 ft 14 kts 90°
2026-05-05 20:23 33.43902 -111.99996 1136 ft 10 kts 91°
2026-05-05 20:23 33.43902 -111.99897 1137 ft 13 kts 90°
2026-05-05 20:24 33.43903 -111.99770 1138 ft 17 kts 89°
2026-05-05 20:24 33.43903 -111.99614 1138 ft 18 kts 90°
2026-05-05 20:24 33.43903 -111.99467 1138 ft 16 kts 90°
2026-05-05 20:24 33.43903 -111.99338 1138 ft 14 kts 90°
2026-05-05 20:25 33.43926 -111.99239 1138 ft 11 kts 31°
2026-05-05 20:25 33.43973 -111.99185 1139 ft 9 kts 78°
2026-05-05 20:25 33.43998 -111.99115 1140 ft 8 kts 19°
2026-05-05 20:25 33.44046 -111.99109 1141 ft 6 kts 354°
2026-05-05 20:26 33.44083 -111.99159 1141 ft 11 kts 270°
2026-05-05 20:26 33.44082 -111.99254 1141 ft 16 kts 271°
2026-05-05 20:26 33.44082 -111.99588 1140 ft 71 kts 269°
2026-05-05 20:26 33.44083 -112.00436 1134 ft 130 kts 270°
2026-05-05 20:27 33.44083 -112.01733 1128 ft 180 kts 269°
2026-05-05 20:27 33.44115 -112.03252 1671 ft 184 kts 269°
2026-05-05 20:27 33.44084 -112.04802 2270 ft 192 kts 266°
2026-05-05 20:27 33.44093 -112.06454 2734 ft 208 kts 271°
2026-05-05 20:28 33.44168 -112.08236 3102 ft 223 kts 271°
2026-05-05 20:28 33.44246 -112.10165 3517 ft 238 kts 271°
2026-05-05 20:28 33.44310 -112.12144 4187 ft 241 kts 271°
2026-05-05 20:28 33.44370 -112.14133 4877 ft 242 kts 271°
2026-05-05 20:29 33.44611 -112.16142 5465 ft 249 kts 287°
2026-05-05 20:29 33.45496 -112.17899 6073 ft 255 kts 314°
2026-05-05 20:29 33.46973 -112.19095 6689 ft 261 kts 333°
2026-05-05 20:29 33.48724 -112.19741 7268 ft 267 kts 351°
2026-05-05 20:30 33.50592 -112.19818 7849 ft 272 kts
2026-05-05 20:30 33.52471 -112.19699 8436 ft 275 kts
2026-05-05 20:30 33.54374 -112.19231 8906 ft 284 kts 13°
2026-05-05 20:30 33.56348 -112.18626 9220 ft 299 kts 13°
2026-05-05 20:31 33.58363 -112.18028 9744 ft 304 kts 13°
2026-05-05 20:31 33.60425 -112.17376 10236 ft 312 kts 17°
2026-05-05 20:31 33.62430 -112.16185 10511 ft 328 kts 38°
2026-05-05 20:31 33.64122 -112.14288 10856 ft 340 kts 47°
2026-05-05 20:32 33.65722 -112.12156 11108 ft 356 kts 49°
2026-05-05 20:32 33.67410 -112.09857 11324 ft 372 kts 49°
2026-05-05 20:32 33.69166 -112.07508 11646 ft 385 kts 48°
2026-05-05 20:32 33.71001 -112.05112 12142 ft 391 kts 47°
2026-05-05 20:33 33.72847 -112.02770 12806 ft 394 kts 45°
2026-05-05 20:33 33.75011 -112.00643 13303 ft 400 kts 31°
2026-05-05 20:33 33.77557 -111.99363 13827 ft 401 kts 12°
2026-05-05 20:33 33.80303 -111.98755 14518 ft 400 kts
2026-05-05 20:34 33.83063 -111.98293 15039 ft 404 kts
2026-05-05 20:34 33.85852 -111.97850 15664 ft 405 kts
2026-05-05 20:34 33.88667 -111.97382 16267 ft 408 kts
2026-05-05 20:34 33.91447 -111.96896 16801 ft 411 kts
2026-05-05 20:35 33.94277 -111.96382 17376 ft 413 kts
2026-05-05 20:35 33.97146 -111.95847 17965 ft 415 kts
2026-05-05 20:35 34.00002 -111.95308 18453 ft 419 kts
2026-05-05 20:35 34.02908 -111.94759 18898 ft 424 kts
2026-05-05 20:36 34.05806 -111.94234 19335 ft 427 kts
2026-05-05 20:36 34.08778 -111.93834 19774 ft 430 kts
2026-05-05 20:36 34.11786 -111.93762 20166 ft 432 kts 354°
2026-05-05 20:36 34.14791 -111.93959 20574 ft 435 kts 352°
2026-05-05 20:37 34.17812 -111.94283 20989 ft 438 kts 349°
2026-05-05 20:37 34.20874 -111.94660 21485 ft 440 kts 349°
2026-05-05 20:37 34.23893 -111.95039 21896 ft 443 kts 349°
2026-05-05 20:37 34.26947 -111.95419 22439 ft 443 kts 349°
2026-05-05 20:38 34.30051 -111.95795 22830 ft 447 kts 349°
2026-05-05 20:38 34.33172 -111.96167 23195 ft 451 kts 349°
2026-05-05 20:38 34.36272 -111.96529 23692 ft 452 kts 349°
2026-05-05 20:38 34.39415 -111.96890 24018 ft 456 kts 349°
2026-05-05 20:39 34.42617 -111.97258 24363 ft 459 kts 349°
2026-05-05 20:39 34.45811 -111.97618 24631 ft 464 kts 349°
2026-05-05 20:39 34.49038 -111.97979 25004 ft 466 kts 349°
2026-05-05 20:39 34.52258 -111.98337 25297 ft 469 kts 348°
2026-05-05 20:40 34.55542 -111.98701 25477 ft 476 kts 349°
2026-05-05 20:40 34.58826 -111.99062 25908 ft 475 kts 348°
2026-05-05 20:40 34.62141 -111.99429 26096 ft 481 kts 349°
2026-05-05 20:40 34.65484 -111.99801 26366 ft 485 kts 348°
2026-05-05 20:41 34.68816 -112.00167 26766 ft 484 kts 348°
2026-05-05 20:41 34.72178 -112.00536 27028 ft 487 kts 347°
2026-05-05 20:41 34.75549 -112.00909 27384 ft 488 kts 348°
2026-05-05 20:41 34.78970 -112.01287 27658 ft 491 kts 347°
2026-05-05 20:42 34.82354 -112.01666 27921 ft 494 kts 347°
2026-05-05 20:42 34.85768 -112.02048 28362 ft 491 kts 347°
2026-05-05 20:42 34.89173 -112.02428 28762 ft 489 kts 346°
2026-05-05 20:42 34.92539 -112.02801 29221 ft 485 kts 345°
2026-05-05 20:43 34.95877 -112.03176 29441 ft 488 kts 346°
2026-05-05 20:43 34.99283 -112.03566 29569 ft 494 kts 345°
2026-05-05 20:43 35.02729 -112.03960 29952 ft 493 kts 346°
2026-05-05 20:43 35.06121 -112.04344 30349 ft 492 kts 346°
2026-05-05 20:44 35.09550 -112.04734 30558 ft 495 kts 346°
2026-05-05 20:44 35.12976 -112.05123 30967 ft 492 kts 346°
2026-05-05 20:44 35.16381 -112.05503 31444 ft 487 kts 346°
2026-05-05 20:44 35.19746 -112.05877 31781 ft 483 kts 346°
2026-05-05 20:45 35.26468 -112.06640 31990 ft 484 kts 347°
2026-05-05 20:45 35.33223 -112.07410 32018 ft 485 kts 347°
2026-05-05 20:46 35.39968 -112.08158 32001 ft 482 kts 347°
2026-05-05 20:46 35.46655 -112.08828 31993 ft 480 kts 348°
2026-05-05 20:47 35.53297 -112.09470 31988 ft 476 kts 349°
2026-05-05 20:47 35.59930 -112.10191 31985 ft 478 kts 348°
2026-05-05 20:48 35.66538 -112.10994 31987 ft 477 kts 348°
2026-05-05 20:48 35.73091 -112.11800 31978 ft 474 kts 348°
2026-05-05 20:49 35.79678 -112.12608 31996 ft 474 kts 348°
2026-05-05 20:49 35.86221 -112.13400 32033 ft 472 kts 349°
2026-05-05 20:50 35.92749 -112.14269 32068 ft 467 kts 346°
2026-05-05 20:50 35.98854 -112.16444 32071 ft 455 kts 331°
2026-05-05 20:51 36.04483 -112.19946 32074 ft 452 kts 327°
2026-05-05 20:51 36.09984 -112.23710 32029 ft 450 kts 326°
2026-05-05 20:52 36.15476 -112.27476 31991 ft 448 kts 327°
2026-05-05 20:52 36.20950 -112.31196 31992 ft 447 kts 327°
2026-05-05 20:53 36.26365 -112.34852 31990 ft 445 kts 328°
2026-05-05 20:53 36.31792 -112.38507 31983 ft 440 kts 328°
2026-05-05 20:54 36.37152 -112.42122 31987 ft 437 kts 328°
2026-05-05 20:54 36.42488 -112.45727 32002 ft 436 kts 329°
2026-05-05 20:55 36.47780 -112.49307 31983 ft 432 kts 329°
2026-05-05 20:55 36.53073 -112.52891 31990 ft 432 kts 330°